Zurück zum Katalog

DELTA 2 DEB

AktivUNKNOWN
NORAD 25904·DEBRIS·🇺🇸 United States

Gestartet Mar 10, 1994 von Cape Canaveral Space Force Station

Loading…

Nächste Überflüge (nächste 24 Stunden)

TLE

AktuellSource: Space-Track

Epoche: Sep 14, 2026, 10:14 UTC

1 25904U 94016D   26257.42700912  .00025947  70029-6  31247-3 0  9998
2 25904  34.4870  30.7445 2074597  27.4694 342.1707 11.39846009902968

Verfolge DELTA 2 DEB in Echtzeit mit AllMySat

Download on the App Store